sat.trackr.live / text

‹ back to catalog

YAOGAN-39 03B

NORAD 57988 · 2023-152C

PAYLOAD ACTIVE UNKNOWN

§ Identity

Operator
Country
PRC
Launch date
2023-10-05
Launch site
XICLF
Launch vehicle
Mass (kg)
RCS (m²)

External: N2YO · Heavens-Above · Gunter

§ Orbital elements

Epoch: 2026-05-25T04:15:36.059616Z

Period
94.88 min
Inclination
34.9903°
Eccentricity
0.0019264
Mean motion
15.17706096 rev/d
Perigee alt
499.5 km
Apogee alt
526.0 km
Semi-major
6,890.9 km
B*
2.7543e-4
RAAN
79.7020°
Arg perigee
19.8384°
Mean anomaly
340.3074°
Rev number
14,669

§ Raw data

YAOGAN-39 03B1 57988U 23152C   26145.17750069  .00005679  00000+0  27543-3 0  99932 57988  34.9903  79.7020 0019264  19.8384 340.3074 15.17706096146696

JSON: /api/v1/satellites/57988 · /tle

For live sub-satellite position, see the globe view (requires WebGL).

§ Visibility from observer

Set your observer location to see the next 7 days of passes ≥ 10°. The values pass through the URL so the page stays shareable.

No JS? Fill the form by hand. The geolocation button needs JavaScript.